[[{"header":{"parameterUnit":"m.s-1","parameterCategory":1,"la1":30.2991,"la2":30.254,"lo1":-89.0895,"lo2":-89.0444,"dy":0.0017,"dx":0.0017,"nx":28,"ny":28,"refTime":"2023-07-27T03:00:00:Z","depth":0,"parameterNumber":2,"parameterNumberName":"U-component_of_WINDS"},"data":[0,0,0,0,0,0,0,0,0,0,0,0,0,0,0,0,0,0,0,0,0,0,0,0,0,0,0,0,0,0,0,0,0,0,0,0,0,0,0,0,0,0,0,0,0,0,0,0,0,0,0,0,0,0,0,0,0,0,0.7467,0.7469,0,0.7659,0.7661,0.7663,0.7698,0.7696,0.7695,0.7693,0.7893,0.79,0.7907,0,0,0,0,0,0,0,0,0,0,0,0,0,0.7128,0.7134,0.7466,0.7469,0.7471,0.7659,0.7661,0.7664,0.7698,0.7696,0.7694,0.7692,0.7891,0.7899,0.7907,0,0,0,0,0,0,0,0,0,0,0,0,0,0.7294,0.7136,0.7466,0.7511,0.7517,0.7658,0.7661,0.7665,0.7698,0.7696,0.7694,0.7691,0.7888,0.7898,0.7908,0.802,0,0,0.794,0.7944,0,0,0,0,0,0,0,0,0.7284,0.7306,0.7502,0.7508,0.7515,0.7652,0.7616,0.7784,0.7699,0.763,0.7693,0.769,0.7815,0.7831,0.7873,0.8029,0.8037,0.794,0.7947,0.7951,0.7954,0,0,0,0,0,0,0,0.7273,0.7298,0.7543,0.7504,0.7513,0.7521,0.7542,0.7648,0.7734,0.7635,0.7638,0.7661,0.7818,0.7863,0.7878,0.804,0.794,0.7949,0.7956,0.796,0.8294,0.8296,0,0,0,0,0,0,0.7253,0.7288,0.7537,0.7548,0.7391,0.7529,0.7553,0.761,0.7732,0.7749,0.7662,0.7661,0.7846,0.7866,0.7885,0.8021,0.7951,0.7961,0.7966,0.8291,0.8294,0.8297,0,0,0,0,0,0,0.7246,0.7275,0.7529,0.7419,0.7452,0.7538,0.7602,0.7615,0.766,0.7753,0.7768,0.7692,0.7845,0.787,0.7985,0.8028,0.7965,0.7975,0.8288,0.8292,0.8296,0.8294,0,0,0,0,0,0,0.7236,0.7272,0.7315,0.742,0.7458,0.7625,0.7605,0.7621,0.7677,0.7678,0.7785,0.78,0.7845,0.7969,0.7995,0.8041,0.7983,0.8284,0.829,0.8295,0.8291,0.8298,0.8304,0,0,0,0,0,0.7224,0.7309,0.7317,0.7347,0.7514,0.7628,0.765,0.7699,0.768,0.7724,0.7783,0.7797,0.8019,0.7981,0.801,0.806,0.8282,0.8288,0.8294,0.8288,0.8296,0.8304,0,0,0,0,0,0,0.7209,0.7323,0.7334,0.7455,0.7531,0.7633,0.7691,0.7707,0.7791,0.7788,0.7846,0.787,0.7981,0.8032,0.7987,0.8172,0.8149,0.8161,0.8134,0.8143,0.8149,0.8135,0.7991,0,0,0,0,0,0.7219,0.7302,0.7398,0.7496,0.7533,0.7605,0.7657,0.7688,0.7769,0.7802,0.787,0.7949,0.8036,0.8093,0.8179,0.8298,0.8321,0.8347,0.8353,0.8358,0.8368,0.8432,0.8444,0.8318,0.8318,0.8318,0,0,0.7243,0.7315,0.7364,0.7494,0.7557,0.7641,0.7632,0.7722,0.7785,0.7816,0.7927,0.7979,0.8071,0.8188,0.8243,0.8234,0.8407,0.8366,0.8369,0.8376,0.8439,0.8451,0.8462,0.8322,0.8321,0.832,0,0,0.7327,0.7391,0.7478,0.754,0.7634,0.7681,0.7702,0.7801,0.7836,0.7948,0.7972,0.8048,0.8198,0.8261,0.8313,0.8418,0.8433,0.8445,0.8478,0.854,0.855,0.8559,0.8594,0.8607,0.8454,0.8454,0.8454,0,0.7345,0.7472,0.7521,0.7609,0.7665,0.7695,0.7782,0.7841,0.7958,0.7996,0.7984,0.817,0.8235,0.8365,0.839,0.8432,0.8456,0.8433,0.8544,0.8554,0.8563,0.8597,0.8611,0.8455,0.8455,0.8455,0.8455,0,0.7487,0.7575,0.7634,0.7744,0.7806,0.7894,0.7956,0.8013,0.8038,0.8085,0.8198,0.8275,0.8376,0.8409,0.8436,0.8543,0.8534,0.8533,0.8511,0.8575,0.8608,0.8622,0.8456,0.8456,0.8455,0.8455,0,0,0.757,0.7704,0.7724,0.7773,0.7878,0.7946,0.8034,0.8131,0.8178,0.8257,0.8332,0.8456,0.8454,0.8513,0.8547,0.8601,0.8676,0.8593,0.8596,0.8604,0.8795,0.8795,0.8809,0.8686,0.8689,0.8691,0.8787,0,0.7665,0.7822,0.7868,0.8,0.808,0.8108,0.8185,0.8256,0.8303,0.8377,0.8429,0.8515,0.8508,0.8543,0.8598,0.8655,0.8715,0.8649,0.8755,0.8758,0.8729,0.8827,0.8827,0.8915,0.88,0.8803,0.8804,0,0.7799,0.7878,0.8017,0.8108,0.8144,0.8211,0.8302,0.8373,0.8455,0.8484,0.8548,0.8576,0.8667,0.864,0.8767,0.872,0.8766,0.88,0.8805,0.8816,0.8784,0.8839,0.8944,0.8956,0.8826,0.8824,0.8823,0,0.7842,0.7984,0.8085,0.8126,0.8236,0.8282,0.833,0.8409,0.8463,0.8542,0.8577,0.8667,0.8715,0.8784,0.8834,0.881,0.8955,0.8933,0.8982,0.898,0.9011,0.9008,0.9123,0.9042,0.9042,0.9042,0.9042,0,0.7943,0.8027,0.8105,0.8167,0.8261,0.8312,0.8404,0.8453,0.8522,0.8593,0.8624,0.869,0.8754,0.8828,0.8869,0.8965,0.8988,0.9014,0.9023,0.901,0.9007,0.9041,0.9036,0.9045,0.9045,0.9044,0.9043,0,0.8008,0.8064,0.8175,0.8268,0.8293,0.8358,0.8438,0.8499,0.8545,0.8635,0.8659,0.8732,0.8821,0.8878,0.8992,0.9019,0.9124,0.9133,0.9096,0.91,0.9145,0.9139,0.9284,0.9305,0.9212,0.9213,0.9213,0,0.8068,0.8133,0.8232,0.8281,0.8329,0.8408,0.8463,0.8515,0.857,0.8666,0.8714,0.8805,0.888,0.9021,0.9084,0.9171,0.9181,0.9225,0.9194,0.9178,0.9179,0.9174,0.9179,0.923,0.9231,0.9232,0.9232,0,0.8169,0.8192,0.8269,0.8355,0.8419,0.849,0.856,0.8599,0.8663,0.8723,0.8814,0.8872,0.8986,0.9075,0.9167,0.9216,0.9234,0.9241,0.9257,0.9244,0.9219,0.9231,0.9108,0.9238,0.9237,0.9237,0.9237,0.9236,0.8232,0.829,0.8367,0.8451,0.8509,0.8574,0.8634,0.8687,0.8763,0.8859,0.8885,0.8979,0.9056,0.9181,0.9231,0.9305,0.9299,0.9322,0.9328,0.9332,0.9331,0.9208,0.9322,0.9322,0.9322,0.9322,0.9322,0,0.8332,0.8383,0.846,0.8556,0.8621,0.8632,0.8709,0.8763,0.8845,0.8915,0.8987,0.909,0.9175,0.9244,0.9331,0.9377,0.9387,0.9398,0.9395,0.9405,0.9333,0.931,0.9388,0.9388,0.9388,0.9388,0.9388,0.9388,0.8392,0.8489,0.8521,0.8646,0.8697,0.8788,0.8831,0.889,0.8945,0.9058,0.9128,0.9172,0.9241,0.9333,0.9411,0.9429,0.946,0.9468,0.9488,0.9418,0.9411,0.9404,0.9382,0.9475,0.9475,0.9554,0.9555,0.9555]},{"header":{"parameterUnit":"m.s-1","parameterCategory":1,"la1":30.2991,"la2":30.254,"lo1":-89.0895,"lo2":-89.0444,"dy":0.0017,"dx":0.0017,"nx":28,"ny":28,"refTime":"2023-07-27T03:00:00:Z","depth":0,"parameterNumber":3,"parameterNumberName":"V-component_of_WINDS"},"data":[0,0,0,0,0,0,0,0,0,0,0,0,0,0,0,0,0,0,0,0,0,0,0,0,0,0,0,0,0,0,0,0,0,0,0,0,0,0,0,0,0,0,0,0,0,0,0,0,0,0,0,0,0,0,0,0,0,0,3.6689,3.6688,0,3.6623,3.6622,3.6621,3.6616,3.6617,3.6618,3.6619,3.6541,3.6538,3.6536,0,0,0,0,0,0,0,0,0,0,0,0,0,3.6803,3.6801,3.6689,3.6688,3.6688,3.6623,3.6622,3.6621,3.6616,3.6617,3.6618,3.6619,3.6542,3.6539,3.6535,0,0,0,0,0,0,0,0,0,0,0,0,0,3.6746,3.68,3.6689,3.6678,3.6676,3.6623,3.6622,3.6621,3.6616,3.6617,3.6618,3.6619,3.6543,3.6539,3.6535,3.6486,0,0,3.6522,3.652,0,0,0,0,0,0,0,0,3.675,3.6742,3.668,3.6678,3.6676,3.6629,3.6633,3.6575,3.6616,3.6638,3.6619,3.662,3.6569,3.6563,3.6547,3.6483,3.6479,3.6522,3.6519,3.6517,3.6516,0,0,0,0,0,0,0,3.6753,3.6745,3.6663,3.6679,3.6677,3.6673,3.6666,3.6622,3.6598,3.6637,3.6636,3.6629,3.6568,3.6551,3.6545,3.6478,3.6522,3.6518,3.6516,3.6514,3.6367,3.6366,0,0,0,0,0,0,3.6761,3.6748,3.6665,3.6661,3.6717,3.667,3.6662,3.6643,3.6598,3.6593,3.6628,3.6629,3.6558,3.655,3.6543,3.6481,3.6518,3.6514,3.6511,3.6369,3.6367,3.6366,0,0,0,0,0,0,3.6763,3.6754,3.6667,3.6704,3.6693,3.6667,3.6645,3.6641,3.6625,3.6592,3.6586,3.6616,3.6558,3.6549,3.65,3.6478,3.6512,3.6508,3.637,3.6368,3.6366,3.6359,0,0,0,0,0,0,3.6767,3.6755,3.6738,3.6704,3.6691,3.6629,3.6644,3.6639,3.6618,3.6619,3.6579,3.6574,3.6559,3.6507,3.6496,3.6473,3.6505,3.6372,3.6369,3.6367,3.6361,3.6357,3.6353,0,0,0,0,0,3.6771,3.6737,3.6737,3.6727,3.667,3.6628,3.662,3.6606,3.6617,3.6598,3.6577,3.6575,3.6483,3.6502,3.649,3.6465,3.6373,3.637,3.6367,3.6363,3.6358,3.6353,0,0,0,0,0,0,3.6766,3.6732,3.6732,3.6687,3.6661,3.6627,3.6604,3.6602,3.6569,3.6571,3.6552,3.6543,3.6495,3.6475,3.6497,3.6415,3.6429,3.6423,3.6429,3.6424,3.6421,3.6425,3.6501,0,0,0,0,0,3.676,3.6732,3.6702,3.6665,3.6652,3.663,3.6611,3.6603,3.6574,3.6562,3.6537,3.6506,3.647,3.6446,3.6411,3.6358,3.6348,3.6335,3.6332,3.6329,3.6323,3.6292,3.6285,3.6355,3.6355,3.6355,0,0,3.6747,3.6725,3.6707,3.6664,3.6642,3.661,3.6621,3.6586,3.6561,3.6555,3.6509,3.6489,3.6453,3.6402,3.6378,3.6384,3.6302,3.6325,3.6323,3.6319,3.6288,3.6281,3.6275,3.6353,3.6354,3.6354,0,0,3.6706,3.6687,3.6654,3.6633,3.6601,3.6587,3.6579,3.6546,3.6533,3.6487,3.6482,3.645,3.6389,3.6363,3.6341,3.629,3.6286,3.6279,3.6258,3.6227,3.6222,3.6217,3.6196,3.6189,3.6274,3.6274,3.6274,0,3.6692,3.6646,3.6636,3.6602,3.6581,3.6578,3.6542,3.6521,3.6478,3.6462,3.6471,3.6393,3.6369,3.6311,3.6298,3.6282,3.6269,3.6283,3.6224,3.6219,3.6214,3.6194,3.6187,3.6273,3.6273,3.6274,3.6274,0,3.663,3.6598,3.6574,3.6536,3.6513,3.6478,3.6459,3.6437,3.643,3.6414,3.6365,3.6336,3.6294,3.628,3.6272,3.622,3.6225,3.6229,3.6242,3.6207,3.6188,3.618,3.6272,3.6273,3.6273,3.6273,0,0,3.6583,3.6541,3.6532,3.6514,3.6479,3.6452,3.6416,3.6378,3.6358,3.6328,3.6295,3.6243,3.6247,3.6223,3.6212,3.6185,3.6144,3.6192,3.6191,3.6183,3.6081,3.6077,3.6069,3.6142,3.614,3.6139,3.6084,0,3.6537,3.6476,3.6465,3.641,3.6378,3.6374,3.6342,3.6315,3.6298,3.6267,3.6247,3.621,3.6219,3.6204,3.6178,3.6155,3.6123,3.6159,3.6107,3.6105,3.6115,3.6059,3.6055,3.6005,3.6076,3.6075,3.6074,0,3.6475,3.6447,3.6389,3.6358,3.6344,3.6316,3.6279,3.6251,3.6218,3.6208,3.6181,3.6174,3.6132,3.6149,3.6089,3.6113,3.6091,3.6077,3.6074,3.6067,3.6087,3.6049,3.5988,3.598,3.6063,3.6064,3.6065,0,3.6444,3.6392,3.635,3.6335,3.6298,3.6277,3.626,3.623,3.6207,3.6175,3.6159,3.6121,3.6099,3.6068,3.6049,3.6063,3.5989,3.6005,3.5977,3.5977,3.596,3.5961,3.5893,3.5949,3.5949,3.5949,3.5949,0,3.6393,3.6357,3.6336,3.631,3.6269,3.6256,3.6215,3.6197,3.617,3.6138,3.6131,3.6101,3.6078,3.6043,3.6027,3.5979,3.5969,3.5957,3.5953,3.5957,3.5958,3.5941,3.5943,3.5947,3.5948,3.5948,3.5948,0,3.6351,3.6336,3.629,3.6259,3.625,3.6221,3.6193,3.6166,3.615,3.6109,3.6099,3.6072,3.6031,3.6009,3.5956,3.5945,3.589,3.5889,3.5902,3.59,3.5872,3.5874,3.5789,3.5776,3.5843,3.5842,3.5842,0,3.6319,3.6292,3.6258,3.6238,3.6221,3.6189,3.6166,3.6151,3.6128,3.6089,3.6066,3.6025,3.5991,3.5925,3.5898,3.5857,3.5854,3.5827,3.5847,3.5851,3.5851,3.5852,3.5848,3.5822,3.5822,3.5821,3.5821,0,3.6262,3.6256,3.6226,3.6193,3.6167,3.614,3.6112,3.6095,3.6074,3.6048,3.6007,3.5981,3.5929,3.5887,3.5844,3.5822,3.5816,3.5815,3.5806,3.5809,3.5817,3.581,3.589,3.5816,3.5817,3.5817,3.5817,3.5818,3.6223,3.6198,3.6171,3.6137,3.6115,3.6089,3.6062,3.6044,3.6011,3.5969,3.5961,3.5917,3.5883,3.5826,3.5803,3.5766,3.5771,3.5758,3.5755,3.5751,3.5749,3.5824,3.5758,3.5758,3.5758,3.5758,3.5758,0,3.6164,3.6147,3.6116,3.6079,3.6051,3.6053,3.6022,3.5997,3.596,3.5931,3.5899,3.5851,3.581,3.5781,3.5738,3.5714,3.571,3.5703,3.5704,3.5698,3.5748,3.576,3.5707,3.5707,3.5707,3.5707,3.5707,3.5707,3.613,3.6088,3.6078,3.6024,3.6006,3.5966,3.5948,3.5922,3.5899,3.5847,3.5814,3.5797,3.5766,3.5722,3.5683,3.5675,3.5658,3.5651,3.5643,3.5689,3.5695,3.57,3.5711,3.5648,3.5648,3.5596,3.5595,3.5595]}]]